Location: Aranbee
(34.0885°N, 118.2342°W)
Time: 04:02:23
(UTC+00:00)

A-11 Canister half - Visible Passes

Search period start: 27 February 2024 00:00
Search period end: 08 March 2024 00:00
Orbit: 1512 x 1687 km, 47.2° (Epoch: 26 February)

Date Brightness Start Highest point End Pass type
(mag) Time Alt. Az. Time Alt. Az. Time Alt. Az.
27 Feb 10.5 09:48:49 28° NE 09:48:49 28° NE 09:52:49 10° NE visible
27 Feb 9.9 11:46:59 34° NW 11:49:39 38° N 11:58:43 10° ENE visible
27 Feb 9.8 13:47:05 10° NW 13:56:44 50° NNE 14:06:01 10° E visible
28 Feb 10.8 09:26:54 22° NE 09:26:54 22° NE 09:29:49 10° NE visible
28 Feb 9.8 11:25:04 37° NNW 11:26:31 39° N 11:35:38 10° ENE visible
28 Feb 9.8 13:24:01 10° NW 13:33:39 48° NNE 13:42:56 10° E visible
29 Feb 11.0 09:04:59 17° NE 09:04:59 17° NE 09:06:49 10° NE visible
29 Feb 9.8 11:03:10 39° N 11:03:23 39° N 11:12:32 10° ENE visible
29 Feb 9.8 13:01:21 11° NW 13:10:34 47° NNE 13:19:49 10° E visible
01 Mar 11.2 08:43:04 13° NE 08:43:04 13° NE 08:43:48 10° NE visible
01 Mar 9.9 10:41:15 39° N 10:41:15 39° N 10:49:28 10° ENE visible
01 Mar 9.8 12:39:25 15° NW 12:47:28 46° NNE 12:56:43 10° E visible
02 Mar 10.1 10:19:20 37° NNE 10:19:20 37° NNE 10:26:24 10° ENE visible
02 Mar 9.8 12:17:31 20° NW 12:24:22 44° NNE 12:33:36 10° E visible
03 Mar 10.3 09:57:27 33° NNE 09:57:27 33° NNE 10:03:20 10° ENE visible
03 Mar 9.9 11:55:37 24° NW 12:01:15 43° NNE 12:10:29 10° E visible
04 Mar 10.5 09:35:34 28° NE 09:35:34 28° NE 09:40:16 10° ENE visible
04 Mar 9.9 11:33:45 29° NW 11:38:08 42° NNE 11:47:22 10° E visible
04 Mar 9.2 13:34:12 10° NW 13:44:18 84° NE 13:53:58 10° SE visible
05 Mar 10.7 09:13:43 23° NE 09:13:43 23° NE 09:17:12 10° NE visible
05 Mar 9.9 11:11:55 34° NNW 11:15:01 42° NNE 11:24:15 10° E visible
05 Mar 9.2 13:11:11 10° NW 13:21:17 80° NE 13:30:59 10° ESE visible
06 Mar 10.7 04:26:08 10° S 04:27:18 13° S 04:27:18 13° S visible
06 Mar 10.9 08:51:55 18° NE 08:51:55 18° NE 08:54:08 10° NE visible
06 Mar 9.9 10:50:06 38° NNW 10:51:53 41° N 11:01:07 10° ENE visible
06 Mar 9.2 12:48:16 10° NW 12:58:15 77° NNE 13:07:59 10° ESE visible
07 Mar 10.4 04:03:31 10° S 04:06:37 19° SSE 04:06:37 19° SSE visible
07 Mar 11.2 08:30:08 13° NE 08:30:08 13° NE 08:31:05 10° NE visible
07 Mar 9.9 10:28:19 40° N 10:28:45 40° N 10:37:59 10° ENE visible
07 Mar 9.2 12:26:31 15° NW 12:35:14 73° NNE 12:44:58 10° ESE visible
